Location: Krasnoyarskiy Pitomnik
(51.1333°N, 71.6167°E)
Time: 09:15:42
(UTC+00:00)

NOSS 2-3 (C) - Pass Details

Date: 22 October 2021
Orbit: 541 x 1670 km, 63.3° (Epoch: 04 December)

Event Time Altitude Azimuth Distance (km) Brightness Sun altitude
Rises 14:28:23 0° 222° (SW) 2,710 7.3 -22.9°
Reaches altitude 10° 14:30:26 10° 223° (SW) 1,860 6.4 -23.2°
Maximum altitude 14:34:31 89° 131° (SE) 633 3.4 -23.8°
Enters shadow 14:34:44 81° 49° (NE) 644 3.4 -23.8°
